Probability
0 0 0 0 0 0 0 0 0 0 0 0 0 1 2 3 4 6 7 8 8 8 7 4 4 7 8 7 6 6 6 6 6 5 2 1 0 0 0 0 0 0 0 0
0 0 0 0 0 0 0 0 0 0 0 0 0 0 1 3 4 4 6 8 9 9 9 6 5 7 8 7 6 7 7 8 8 6 4 2 1 0 0 0 0 0 0 0
0 0 0 0 0 0 0 0 0 0 0 0 0 0 1 2 2 3 5 9 11 11 12 10 8 7 8 8 7 8 9 11 11 8 5 3 2 0 0 0 0 0 0 0
0 0 0 0 0 0 0 0 0 0 0 0 0 0 1 1 2 3 6 9 11 12 14 14 11 10 9 9 9 9 10 10 10 9 7 5 4 2 0 0 0 0 0 0
0 0 0 0 0 0 0 0 0 0 0 0 0 1 2 2 2 4 7 9 10 11 13 15 15 13 11 10 10 9 9 9 9 9 8 7 5 3 1 0 0 0 1 1
0 0 0 0 0 0 0 0 0 0 0 0 0 1 2 3 3 4 7 9 9 9 10 13 16 15 12 11 12 11 8 7 8 9 9 8 6 5 3 2 2 2 2 2
0 0 0 0 0 0 0 0 0 0 0 0 0 1 3 3 3 4 6 8 8 7 7 10 15 18 16 16 17 15 11 8 9 10 10 9 8 7 7 6 6 5 4 3
0 0 0 0 0 0 0 0 0 0 0 0 0 2 4 4 4 4 6 7 6 6 8 11 15 19 20 20 21 20 15 10 10 12 12 11 10 10 9 9 8 6 4 4
0 0 0 0 0 0 0 0 0 0 0 0 1 2 4 4 5 6 7 6 5 6 9 13 17 20 20 19 21 21 17 13 12 13 14 14 13 13 12 11 9 7 5 4
0 0 0 0 0 0 0 0 0 0 0 0 1 2 3 4 6 8 9 8 6 7 10 16 20 21 18 16 17 20 19 16 15 15 16 16 17 17 16 14 12 10 7 5
0 0 0 0 0 0 0 0 0 0 0 0 0 1 3 5 7 10 13 12 9 9 11 15 21 21 17 13 15 20 22 20 18 18 18 19 19 20 19 17 15 13 10 8
0 0 0 0 0 0 0 0 0 0 0 0 0 2 6 8 10 13 17 17 14 12 13 15 19 20 19 17 18 22 25 25 23 23 23 23 23 23 21 19 16 15 13 10
0 0 0 0 0 0 0 0 0 0 0 0 1 5 10 13 14 16 19 20 17 15 16 17 18 20 22 25 26 27 29 29 28 28 28 28 27 25 22 18 15 15 14 12
0 0 0 0 0 0 0 0 0 0 0 0 3 8 13 15 14 16 19 21 21 19 18 18 18 19 23 28 32 34 34 32 31 31 30 29 27 25 20 15 12 13 14 14
0 0 0 0 0 0 0 1 1 0 0 1 5 10 13 12 12 14 18 23 24 22 19 16 17 20 23 26 33 38 36 32 31 31 30 28 25 22 18 14 13 15 16 15
0 0 0 0 0 0 1 2 2 1 1 2 6 10 10 10 12 16 22 27 28 25 20 17 18 21 25 29 34 38 35 31 29 30 31 29 26 22 18 15 15 16 17 17
0 0 0 0 0 0 1 3 4 3 3 4 8 10 10 12 15 21 28 35 34 27 21 19 19 22 28 33 37 37 33 30 30 31 32 32 28 24 20 17 16 16 16 17
0 0 0 0 0 0 1 3 4 5 5 6 9 12 16 18 22 27 34 39 35 27 21 21 23 27 31 34 36 35 31 28 30 32 33 31 28 25 22 19 17 17 17 18
0 0 0 0 0 0 1 2 3 4 5 7 11 15 20 24 27 30 34 36 33 26 23 24 28 32 34 32 31 31 29 28 29 31 33 31 28 25 24 22 21 21 22 23
0 0 0 0 1 1 2 2 1 2 4 8 13 18 21 24 24 25 29 32 31 28 26 27 31 34 34 31 29 30 30 29 29 30 31 31 30 27 24 22 22 23 24 25
0 0 0 0 1 2 2 1 0 1 4 9 14 20 22 21 19 21 27 31 31 29 28 29 31 33 31 30 31 32 31 29 28 28 28 30 30 28 24 21 20 21 22 23
1 2 1 1 1 3 3 2 1 3 8 13 18 22 24 22 22 25 29 31 30 28 27 28 30 30 29 29 32 31 28 25 25 26 26 26 27 26 23 20 18 18 19 20
3 3 4 4 4 5 6 6 5 7 13 19 22 23 24 26 27 28 28 28 28 27 27 27 28 28 27 28 30 27 23 21 21 21 23 23 23 23 22 20 17 17 17 18
5 6 8 9 9 9 9 9 9 12 16 20 21 21 22 24 26 25 24 25 26 26 25 25 26 25 24 25 25 22 19 19 17 17 20 22 21 21 20 18 17 16 16 16
8 10 12 13 12 10 9 9 12 15 17 18 18 17 17 19 20 21 22 24 25 23 22 21 21 21 21 21 20 18 18 17 14 14 18 21 21 20 17 15 14 13 12 11
11 11 13 13 11 8 8 9 12 15 17 18 16 15 15 15 16 19 22 25 24 21 18 17 17 18 19 19 17 17 17 15 13 13 16 19 20 19 15 12 11 10 7 7
Wind_Speed
1 2 4 8 8 8 6 4 4 5 4 4 5 6 9 10 10 10 10 11 11 11 10 10 11 10 8 7 7 6 6 4 4 2 2 2 1 1 1 1 2 3 3 3
2 5 11 8 7 6 5 4 4 4 4 4 5 6 8 9 12 13 14 14 13 11 10 10 10 10 9 9 7 7 6 6 5 3 3 2 2 2 1 1 1 2 3 3
7 9 7 6 6 6 6 7 8 5 1 2 5 0 4 5 6 9 12 13 14 16 16 14 13 11 11 10 9 8 7 6 5 4 3 2 2 1 1 1 1 1 2 3
6 7 5 5 7 6 7 9 7 6 4 2 5 3 6 7 6 8 10 12 14 15 14 14 13 12 12 11 10 8 7 6 5 5 5 5 4 3 3 2 1 1 2 2
6 5 5 6 8 6 7 6 5 6 4 1 0 3 5 4 6 9 10 13 14 15 16 16 16 15 13 11 10 8 7 6 5 6 6 5 4 3 2 2 2 1 1 2
7 6 6 8 7 6 3 2 3 3 4 0 4 3 5 6 11 9 10 11 12 13 14 13 13 12 11 10 9 9 8 7 6 6 6 6 5 4 4 3 3 2 1 1
6 7 5 3 2 4 3 5 4 4 4 4 3 3 8 9 10 11 11 11 11 12 12 11 12 12 12 12 11 10 10 8 7 7 6 6 6 6 6 5 4 3 2 1
3 7 5 4 5 5 3 8 7 5 5 4 2 4 7 6 8 8 9 11 10 9 11 12 12 13 13 13 12 11 10 8 8 7 6 5 5 4 3 4 4 4 3 3
5 7 6 5 4 7 3 3 8 7 3 1 3 4 6 2 2 5 7 8 9 10 10 11 11 11 11 11 11 12 11 9 8 8 7 5 5 5 4 4 3 3 2 3
7 4 6 4 1 0 6 6 5 6 4 1 3 4 4 2 2 4 7 8 9 8 9 10 11 11 10 10 9 10 10 10 9 8 7 6 5 5 5 4 4 4 3 3
5 4 5 3 1 3 0 2 5 4 6 6 3 7 7 8 8 8 8 9 9 10 10 10 11 11 10 9 9 9 9 8 7 7 6 6 5 5 5 4 4 4 3 3
4 6 3 6 5 4 4 5 7 5 3 5 5 7 5 5 5 7 7 7 6 8 8 9 9 8 8 9 9 9 9 9 8 8 7 6 5 5 4 4 4 4 4 3
4 6 1 7 8 5 1 1 3 5 5 4 5 6 2 2 3 5 8 7 5 5 6 7 7 8 9 9 9 8 8 9 8 7 7 5 5 5 5 4 4 4 4 4
5 5 7 8 7 3 2 3 1 4 3 3 6 5 2 1 3 4 6 7 6 6 6 6 7 7 7 8 7 7 7 7 7 7 7 6 6 6 5 5 4 4 4 4
5 3 3 4 4 1 1 2 2 2 6 7 7 8 8 7 6 6 6 6 7 5 5 6 6 6 6 6 6 6 7 6 7 7 7 7 6 5 5 4 4 4 4 4
4 2 1 1 1 2 2 2 1 1 2 4 5 4 5 5 5 6 6 7 7 6 6 6 6 6 7 7 7 6 6 6 6 7 7 6 6 6 5 5 4 4 3 3
1 3 3 2 2 3 3 3 1 0 1 5 6 6 5 6 7 7 7 7 8 8 7 6 6 7 7 7 7 7 6 5 6 6 6 6 6 6 6 6 5 4 4 3
4 3 3 1 2 2 7 2 3 4 1 1 3 4 7 8 7 5 6 8 7 7 7 6 5 5 4 4 5 5 5 5 5 5 5 5 5 6 5 5 5 4 3 4
6 7 4 3 3 3 4 3 0 3 2 1 4 5 5 5 5 2 2 5 7 7 7 6 5 6 5 5 5 5 4 5 5 5 5 5 5 6 5 5 5 4 4 3
4 6 5 4 4 5 5 4 1 6 1 3 3 5 5 5 3 3 2 5 5 5 5 5 5 6 5 4 5 5 4 4 4 4 4 4 5 5 5 5 4 3 3 4
3 3 4 4 3 4 5 5 3 4 6 3 2 4 3 3 5 5 4 4 5 5 6 6 6 5 4 4 5 4 3 4 4 3 3 3 4 4 4 4 3 3 3 2
3 2 2 3 3 5 5 2 3 5 3 2 3 4 4 3 4 5 5 5 5 5 5 5 5 4 3 4 5 4 3 3 3 4 3 3 3 3 3 3 3 3 3 3
1 4 4 5 5 4 1 2 3 4 3 2 4 4 5 5 4 5 5 5 4 5 5 4 5 5 3 3 5 5 3 3 4 3 3 2 2 2 2 3 3 2 3 3
3 1 3 2 1 1 2 2 3 5 5 4 5 5 5 5 4 5 5 4 4 4 5 5 5 5 3 2 3 3 2 3 4 3 2 2 2 1 1 1 2 3 3 3
4 1 2 1 1 2 3 2 2 4 6 6 4 5 5 6 4 4 4 4 4 4 4 4 5 4 4 3 3 2 2 4 3 3 2 1 2 2 2 2 2 3 3 4
3 3 4 5 5 4 3 1 2 5 5 5 5 5 4 5 4 4 3 3 3 4 4 4 4 4 3 3 2 2 2 4 4 2 2 1 1 1 1 1 1 1 2 2
Wind_Direction
239 106 225 229 206 200 201 211 235 244 208 152 175 174 179 184 180 176 176 173 175 178 177 169 165 164 160 161 159 161 158 165 151 137 138 137 148 149 128 150 142 140 144 138
5 243 231 231 235 214 207 208 244 257 215 156 175 196 193 188 191 186 181 180 178 172 167 171 170 167 168 173 169 166 169 169 167 165 164 159 156 167 160 143 125 134 132 137
209 237 235 233 241 223 227 206 211 206 172 105 121 261 215 214 204 197 188 182 176 174 173 176 178 179 174 178 178 176 176 170 168 159 136 122 91 71 65 98 131 143 138 141
238 243 242 244 243 208 233 223 201 188 147 207 155 198 239 204 205 203 194 186 183 180 177 180 180 181 181 183 179 174 173 169 168 157 148 149 154 166 191 178 168 170 147 140
244 230 230 240 241 216 229 221 189 191 162 127 73 147 267 178 210 212 199 193 189 185 183 183 184 184 184 180 177 174 170 173 171 163 162 161 164 174 169 154 151 168 172 152
244 250 214 225 245 223 211 40 24 52 76 23 239 162 253 208 211 205 196 192 187 185 184 186 185 179 180 177 175 172 171 179 177 170 166 166 166 163 155 163 169 179 181 173
292 287 268 234 276 316 66 85 30 3 17 254 248 165 238 223 203 193 188 191 188 186 183 183 182 180 180 178 177 175 174 180 181 176 176 175 172 169 172 177 179 178 179 184
224 280 263 232 195 207 217 146 162 191 210 257 297 221 250 242 202 190 181 179 177 178 182 185 184 183 182 180 178 175 179 181 181 180 182 176 169 169 175 176 176 183 189 190
189 247 271 264 214 170 182 182 170 143 161 165 280 282 308 345 105 150 155 161 175 180 178 179 178 177 176 178 180 179 178 179 182 182 177 176 174 170 173 175 173 176 182 184
169 237 275 276 11 259 166 161 98 111 143 212 286 271 243 238 217 156 159 171 180 178 175 177 177 176 178 179 181 179 180 182 181 180 182 181 184 181 177 171 176 181 184 177
157 171 295 351 203 222 102 106 113 125 151 153 208 258 234 205 190 173 172 174 177 176 178 178 175 176 173 169 172 177 179 177 176 179 182 179 183 184 175 175 183 183 178 168
165 138 241 264 259 217 176 172 145 151 206 163 169 257 262 197 166 154 156 159 169 179 174 168 163 162 162 166 174 181 182 180 182 179 176 178 177 175 176 180 182 175 170 166
137 118 83 335 340 354 18 203 151 137 127 151 159 252 305 109 108 141 141 144 151 156 157 156 156 162 165 168 173 178 181 182 179 172 169 167 171 179 184 182 179 170 165 161
118 119 158 194 220 240 287 293 189 121 143 188 198 204 241 177 148 144 141 147 151 148 143 145 152 162 166 168 168 168 170 172 167 165 167 170 178 185 185 173 168 167 163 160
84 128 185 203 209 183 300 293 295 193 188 182 201 186 200 195 179 166 151 142 138 142 147 153 157 160 154 153 157 163 167 164 166 167 172 179 181 179 176 170 166 165 166 171
57 111 105 314 347 38 358 316 328 267 189 162 160 211 206 171 148 140 145 145 149 157 161 154 155 156 158 158 157 159 167 167 166 173 181 178 174 173 175 175 168 166 171 173
54 97 88 277 306 40 315 272 138 53 163 160 180 210 158 138 157 161 160 152 159 166 167 161 162 167 165 163 159 160 166 162 167 177 175 173 173 175 177 173 168 179 183 172
153 113 126 144 69 214 240 258 102 95 14 139 154 154 155 160 159 159 167 160 166 160 162 165 156 149 151 146 138 147 152 156 163 169 169 170 171 172 171 168 173 181 178 178
156 142 132 131 164 252 297 318 83 115 344 347 135 137 126 117 89 62 193 159 159 156 156 155 149 140 132 135 139 130 142 149 153 160 165 170 169 169 169 175 183 185 179 186
100 116 126 136 152 212 246 281 323 99 10 307 134 142 142 119 120 224 188 137 135 135 138 135 129 121 124 134 132 128 144 148 158 166 167 167 164 164 169 179 184 182 181 196
42 62 128 150 178 238 259 292 49 110 225 256 161 144 136 156 185 183 147 127 127 126 127 128 125 127 134 136 127 137 150 170 172 154 143 151 161 167 171 174 175 176 181 187
155 138 161 140 159 242 282 36 125 201 219 168 132 125 108 117 128 130 127 122 121 121 126 128 130 129 126 133 133 140 170 176 148 142 151 166 177 185 177 173 184 177 173 188
165 179 174 173 200 236 290 140 156 129 110 108 108 110 109 107 114 118 117 115 118 122 125 124 127 120 113 121 135 148 177 156 145 146 162 177 185 193 187 180 188 182 178 190
310 61 102 84 316 340 17 60 84 106 103 94 111 114 107 102 102 101 105 105 109 114 119 120 120 117 113 115 127 157 160 141 138 153 173 167 169 187 210 205 194 192 200 203
263 343 96 137 235 26 10 42 76 73 89 93 80 90 102 102 102 111 113 122 127 125 125 127 131 132 130 120 123 125 135 136 141 159 172 172 188 197 209 222 217 208 215 202
241 195 172 200 199 171 224 251 92 91 97 112 105 82 85 112 121 111 117 120 116 115 114 116 115 113 118 125 123 110 115 132 138 149 167 178 190 199 195 217 292 284 223 237